Location: Pompeys Pillar
(45.9913°N, 107.9528°W)
Time: 05:10:44
(UTC+00:00)

Tiros 1 - Pass Details

Date: 02 June 2022
Orbit: 629 x 663 km, 48.4° (Epoch: 30 June)

Event Time Altitude Azimuth Distance (km) Brightness Sun altitude
Rises 08:35:53 0° 281° (W) 2,917 10.4 -19.1°
Reaches altitude 10° 08:38:12 10° 284° (WNW) 2,011 9.6 -18.9°
Maximum altitude 08:42:49 67° 7° (N) 687 7.4 -18.6°
Drops below altitude 10° 08:47:28 10° 91° (E) 2,025 10.0 -18.3°
Sets 08:49:49 0° 94° (E) 2,938 10.8 -18.1°
